Weather History for KAQW - December, 2012

Change the Weather History Date:

Friday, December 28, 2012

  Actual Average Record
Temperature  
Mean Temperature 26 °F -  
Max Temperature 30 °F 32 °F 60 °F (2008)
Min Temperature 23 °F 18 °F -2 °F (2004)
Degree Days  
Heating Degree Days 38    
Moisture  
Dew Point 18 °F    
Average Humidity 72    
Maximum Humidity 81    
Minimum Humidity 64    
Precipitation  
Precipitation 0.00 in - - ()
Sea Level Pressure  
Sea Level Pressure 29.98 in    
Wind  
Wind Speed 10 mph (West)    
Max Wind Speed 15 mph    
Max Gust Speed 23 mph    
Visibility 10 miles    
Events Snow    
Averages and records for this station are not official NWS values.
T = Trace of Precipitation, MM = Missing Value Source: NWS Daily Summary

Daily Weather History Graph

Daily Weather History Graph

Search for Another Location

Airport or City:

Trip Planner

Search our weather history database for the weather conditions in past years. The results will help you decide how hot, cold, wet, or windy it might be!

Date:

Astronomy

Dec. 28, 2012 Rise Set
Actual Time 7:22 AM EST 4:26 PM EST
Civil Twilight 6:50 AM EST 4:58 PM EST
Nautical Twilight 6:14 AM EST 5:34 PM EST
Astronomical Twilight 5:40 AM EST 6:08 PM EST
Moon 5:02 PM EST 7:13 AM EST
Length of Visible Light 10h 08m
Length of Day
9h 04m
Full, 100% of the Moon is Illuminated
Dec 28
Full
Jan 4
Last Quarter
Jan 11
New
Jan 18
First Quarter
Jan 26
Full

Hourly Weather History & Observations

Time (EST) Temp. Windchill Dew Point Humidity Pressure Visibility Wind Dir Wind Speed Gust Speed Precip Events Conditions
12:52 AM 23.0 °F 10.1 °F 18.0 °F 81% 29.80 in 7.0 mi West 15.0 mph 21.9 mph N/A   Overcast
1:26 AM 23.0 °F 10.1 °F 15.8 °F 74% 29.79 in 10.0 mi West 15.0 mph 23.0 mph N/A   Overcast
1:52 AM 24.1 °F 12.5 °F 16.0 °F 71% 29.83 in 10.0 mi West 12.7 mph - N/A   Overcast
2:52 AM 23.0 °F 11.1 °F 15.1 °F 72% 29.88 in 6.0 mi West 12.7 mph 19.6 mph 0.00 in Snow Light Snow
3:52 AM 23.0 °F 14.7 °F 15.1 °F 72% 29.89 in 10.0 mi West 6.9 mph - 0.00 in   Overcast
4:52 AM 24.1 °F 14.4 °F 14.0 °F 65% 29.91 in 10.0 mi WSW 9.2 mph - N/A   Overcast
5:52 AM 24.1 °F 16.0 °F 16.0 °F 71% 29.93 in 10.0 mi West 6.9 mph - N/A   Overcast
6:52 AM 24.1 °F 13.1 °F 16.0 °F 71% 29.95 in 10.0 mi West 11.5 mph - N/A   Overcast
9:52 AM 26.1 °F 17.6 °F 17.1 °F 69% 30.03 in 10.0 mi West 8.1 mph - N/A   Overcast
10:52 AM 27.0 °F 21.6 °F 18.0 °F 69% 30.03 in 10.0 mi WNW 4.6 mph - N/A   Overcast
11:52 AM 28.9 °F 20.4 °F 18.0 °F 64% 30.02 in 10.0 mi West 9.2 mph - N/A   Overcast
12:52 PM 28.9 °F 19.2 °F 19.0 °F 67% 30.00 in 10.0 mi West 11.5 mph 16.1 mph N/A   Overcast
1:52 PM 30.0 °F 21.1 °F 19.0 °F 64% 30.00 in 10.0 mi West 10.4 mph - N/A   Overcast
3:52 PM 28.9 °F 21.1 °F 19.9 °F 69% 30.03 in 10.0 mi West 8.1 mph - N/A   Overcast
4:52 PM 28.0 °F 18.6 °F 19.9 °F 72% 30.06 in 10.0 mi West 10.4 mph - N/A   Overcast
5:52 PM 28.0 °F 21.7 °F 19.9 °F 72% 30.07 in 10.0 mi West 5.8 mph - N/A   Overcast
6:52 PM 28.0 °F 24.2 °F 19.9 °F 72% 30.06 in 10.0 mi Variable 3.5 mph - N/A   Overcast
7:52 PM 28.0 °F 20.0 °F 19.9 °F 72% 30.07 in 10.0 mi West 8.1 mph - N/A   Overcast
8:52 PM 27.0 °F 23.0 °F 19.9 °F 75% 30.06 in 10.0 mi WSW 3.5 mph - N/A   Overcast
9:52 PM 27.0 °F - 19.9 °F 75% 30.06 in 10.0 mi Calm Calm - N/A   Overcast
10:52 PM 26.1 °F - 21.0 °F 81% 30.07 in 10.0 mi Calm Calm - N/A   Overcast
11:52 PM 26.1 °F 21.9 °F 19.9 °F 78% 30.05 in 10.0 mi West 3.5 mph - N/A   Overcast